Year,Month,Day,Hour,Minute,Value (Times are PST for temperature in C)
2020,02,03,00,00,2.90
2020,02,03,00,01,2.90
2020,02,03,00,02,2.90
2020,02,03,00,03,2.90
2020,02,03,00,04,2.90
2020,02,03,00,05,2.80
2020,02,03,00,06,2.80
2020,02,03,00,07,2.80
2020,02,03,00,08,2.80
2020,02,03,00,09,2.80
2020,02,03,00,10,2.80
2020,02,03,00,11,2.80
2020,02,03,00,12,2.80
2020,02,03,00,13,2.80
2020,02,03,00,14,2.80
2020,02,03,00,15,2.70
2020,02,03,00,16,2.70
2020,02,03,00,17,2.70
2020,02,03,00,18,2.70
2020,02,03,00,19,2.70
2020,02,03,00,20,2.70
2020,02,03,00,21,2.70
2020,02,03,00,22,2.70
2020,02,03,00,23,2.70
2020,02,03,00,24,2.70
2020,02,03,00,25,2.70
2020,02,03,00,26,2.70
2020,02,03,00,27,2.70
2020,02,03,00,28,2.70
2020,02,03,00,29,2.70
2020,02,03,00,30,2.70
2020,02,03,00,31,2.70
2020,02,03,00,32,2.70
2020,02,03,00,33,2.70
2020,02,03,00,34,2.70
2020,02,03,00,35,2.70
2020,02,03,00,36,2.70
2020,02,03,00,37,2.70
2020,02,03,00,38,2.70
2020,02,03,00,39,2.70
2020,02,03,00,40,2.70
2020,02,03,00,41,2.70
2020,02,03,00,42,2.70
2020,02,03,00,43,2.70
2020,02,03,00,44,2.70
2020,02,03,00,45,2.70
2020,02,03,00,46,2.70
2020,02,03,00,47,2.70
2020,02,03,00,48,2.70
2020,02,03,00,49,2.70
2020,02,03,00,50,2.70
2020,02,03,00,51,2.70
2020,02,03,00,52,2.70
2020,02,03,00,53,2.70
2020,02,03,00,54,2.70
2020,02,03,00,55,2.70
2020,02,03,00,56,2.70
2020,02,03,00,57,2.70
2020,02,03,00,58,2.70
2020,02,03,00,59,2.70
2020,02,03,01,00,2.60
2020,02,03,01,01,2.60
2020,02,03,01,02,2.60
2020,02,03,01,03,2.60
2020,02,03,01,04,2.70
2020,02,03,01,05,2.70
2020,02,03,01,06,2.70
2020,02,03,01,07,2.70
2020,02,03,01,08,2.70
2020,02,03,01,09,2.70
2020,02,03,01,10,2.70
2020,02,03,01,11,2.70
2020,02,03,01,12,2.70
2020,02,03,01,13,2.60
2020,02,03,01,14,2.60
2020,02,03,01,15,2.60
2020,02,03,01,16,2.60
2020,02,03,01,17,2.60
2020,02,03,01,18,2.70
2020,02,03,01,19,2.70
2020,02,03,01,20,2.70
2020,02,03,01,21,2.70
2020,02,03,01,22,2.70
2020,02,03,01,23,2.70
2020,02,03,01,24,2.70
2020,02,03,01,25,2.70
2020,02,03,01,26,2.70
2020,02,03,01,27,2.70
2020,02,03,01,28,2.70
2020,02,03,01,29,2.70
2020,02,03,01,30,2.70
2020,02,03,01,31,2.70
2020,02,03,01,32,2.70
2020,02,03,01,33,2.70
2020,02,03,01,34,2.70
2020,02,03,01,35,2.70
2020,02,03,01,36,2.70
2020,02,03,01,37,2.70
2020,02,03,01,38,2.70
2020,02,03,01,39,2.70
2020,02,03,01,40,2.70
2020,02,03,01,41,2.70
2020,02,03,01,42,2.70
2020,02,03,01,43,2.70
2020,02,03,01,44,2.70
2020,02,03,01,45,2.70
2020,02,03,01,46,2.70
2020,02,03,01,47,2.60
2020,02,03,01,48,2.60
2020,02,03,01,49,2.60
2020,02,03,01,50,2.60
2020,02,03,01,51,2.60
2020,02,03,01,52,2.60
2020,02,03,01,53,2.60
2020,02,03,01,54,2.50
2020,02,03,01,55,2.50
2020,02,03,01,56,2.50
2020,02,03,01,57,2.50
2020,02,03,01,58,2.40
2020,02,03,01,59,2.40
2020,02,03,02,00,2.40
2020,02,03,02,01,2.40
2020,02,03,02,02,2.40
2020,02,03,02,03,2.30
2020,02,03,02,04,2.30
2020,02,03,02,05,2.30
2020,02,03,02,06,2.30
2020,02,03,02,07,2.30
2020,02,03,02,08,2.30
2020,02,03,02,09,2.30
2020,02,03,02,10,2.30
2020,02,03,02,11,2.30
2020,02,03,02,12,2.30
2020,02,03,02,13,2.30
2020,02,03,02,14,2.30
2020,02,03,02,15,2.30
2020,02,03,02,16,2.20
2020,02,03,02,17,2.20
2020,02,03,02,18,2.20
2020,02,03,02,19,2.20
2020,02,03,02,20,2.20
2020,02,03,02,21,2.20
2020,02,03,02,22,2.20
2020,02,03,02,23,2.20
2020,02,03,02,24,2.20
2020,02,03,02,25,2.20
2020,02,03,02,26,2.20
2020,02,03,02,27,2.20
2020,02,03,02,28,2.20
2020,02,03,02,29,2.20
2020,02,03,02,30,2.20
2020,02,03,02,31,2.20
2020,02,03,02,32,2.20
2020,02,03,02,33,2.20
2020,02,03,02,34,2.20
2020,02,03,02,35,2.20
2020,02,03,02,36,2.20
2020,02,03,02,37,2.20
2020,02,03,02,38,2.20
2020,02,03,02,39,2.10
2020,02,03,02,40,2.10
2020,02,03,02,41,2.10
2020,02,03,02,42,2.10
2020,02,03,02,43,2.00
2020,02,03,02,44,2.00
2020,02,03,02,45,2.00
2020,02,03,02,46,2.00
2020,02,03,02,47,2.00
2020,02,03,02,48,2.00
2020,02,03,02,49,2.00
2020,02,03,02,50,2.00
2020,02,03,02,51,2.00
2020,02,03,02,52,2.00
2020,02,03,02,53,2.00
2020,02,03,02,54,2.00
2020,02,03,02,55,2.00
2020,02,03,02,56,2.00
2020,02,03,02,57,2.00
2020,02,03,02,58,2.00
2020,02,03,02,59,2.10
2020,02,03,03,00,2.10
2020,02,03,03,01,2.10
2020,02,03,03,02,2.10
2020,02,03,03,03,2.10
2020,02,03,03,04,2.10
2020,02,03,03,05,2.10
2020,02,03,03,06,2.10
2020,02,03,03,07,2.10
2020,02,03,03,08,2.10
2020,02,03,03,09,2.20
2020,02,03,03,10,2.20
2020,02,03,03,11,2.20
2020,02,03,03,12,2.20
2020,02,03,03,13,2.20
2020,02,03,03,14,2.20
2020,02,03,03,15,2.20
2020,02,03,03,16,2.10
2020,02,03,03,17,2.10
2020,02,03,03,18,2.10
2020,02,03,03,19,2.10
2020,02,03,03,20,2.10
2020,02,03,03,21,2.10
2020,02,03,03,22,2.00
2020,02,03,03,23,2.00
2020,02,03,03,24,2.00
2020,02,03,03,25,2.00
2020,02,03,03,26,2.00
2020,02,03,03,27,1.90
2020,02,03,03,28,1.90
2020,02,03,03,29,1.90
2020,02,03,03,30,1.90
2020,02,03,03,31,1.90
2020,02,03,03,32,1.90
2020,02,03,03,33,1.90
2020,02,03,03,34,1.80
2020,02,03,03,35,1.80
2020,02,03,03,36,1.80
2020,02,03,03,37,1.80
2020,02,03,03,38,1.80
2020,02,03,03,39,1.80
2020,02,03,03,40,1.80
2020,02,03,03,41,1.80
2020,02,03,03,42,1.80
2020,02,03,03,43,1.80
2020,02,03,03,44,1.80
2020,02,03,03,45,1.70
2020,02,03,03,46,1.60
2020,02,03,03,47,1.60
2020,02,03,03,48,1.50
2020,02,03,03,49,1.50
2020,02,03,03,50,1.40
2020,02,03,03,51,1.40
2020,02,03,03,52,1.30
2020,02,03,03,53,1.30
2020,02,03,03,54,1.30
2020,02,03,03,55,1.30
2020,02,03,03,56,1.30
2020,02,03,03,57,1.30
2020,02,03,03,58,1.30
2020,02,03,03,59,1.30
2020,02,03,04,00,1.30
2020,02,03,04,01,1.30
2020,02,03,04,02,1.30
2020,02,03,04,03,1.30
2020,02,03,04,04,1.30
2020,02,03,04,05,1.20
2020,02,03,04,06,1.10
2020,02,03,04,07,1.10
2020,02,03,04,08,1.10
2020,02,03,04,09,1.00
2020,02,03,04,10,1.00
2020,02,03,04,11,0.90
2020,02,03,04,12,0.90
2020,02,03,04,13,0.90
2020,02,03,04,14,0.90
2020,02,03,04,15,0.90
2020,02,03,04,16,0.90
2020,02,03,04,17,0.90
2020,02,03,04,18,0.90
2020,02,03,04,19,0.90
2020,02,03,04,20,0.80
2020,02,03,04,21,0.80
2020,02,03,04,22,0.80
2020,02,03,04,23,0.80
2020,02,03,04,24,0.80
2020,02,03,04,25,0.80
2020,02,03,04,26,0.80
2020,02,03,04,27,0.70
2020,02,03,04,28,0.70
2020,02,03,04,29,0.70
2020,02,03,04,30,0.70
2020,02,03,04,31,0.60
2020,02,03,04,32,0.60
2020,02,03,04,33,0.60
2020,02,03,04,34,0.60
2020,02,03,04,35,0.50
2020,02,03,04,36,0.50
2020,02,03,04,37,0.50
2020,02,03,04,38,0.50
2020,02,03,04,39,0.50
2020,02,03,04,40,0.40
2020,02,03,04,41,0.40
2020,02,03,04,42,0.40
2020,02,03,04,43,0.40
2020,02,03,04,44,0.40
2020,02,03,04,45,0.40
2020,02,03,04,46,0.40
2020,02,03,04,47,0.30
2020,02,03,04,48,0.30
2020,02,03,04,49,0.30
2020,02,03,04,50,0.30
2020,02,03,04,51,0.30
2020,02,03,04,52,0.30
2020,02,03,04,53,0.20
2020,02,03,04,54,0.20
2020,02,03,04,55,0.20
2020,02,03,04,56,0.20
2020,02,03,04,57,0.20
2020,02,03,04,58,0.20
2020,02,03,04,59,0.20
2020,02,03,05,00,0.20
2020,02,03,05,01,0.20
2020,02,03,05,02,0.20
2020,02,03,05,03,0.20
2020,02,03,05,04,0.20
2020,02,03,05,05,0.20
2020,02,03,05,06,0.10
2020,02,03,05,07,0.10
2020,02,03,05,08,0.10
2020,02,03,05,09,0.10
2020,02,03,05,10,0.10
2020,02,03,05,11,0.10
2020,02,03,05,12,0.10
2020,02,03,05,13,0.10
2020,02,03,05,14,0.10
2020,02,03,05,15,0.10
2020,02,03,05,16,0.10
2020,02,03,05,17,0.10
2020,02,03,05,18,0.10
2020,02,03,05,19,0.00
2020,02,03,05,20,-0.10
2020,02,03,05,21,-0.10
2020,02,03,05,22,-0.10
2020,02,03,05,23,-0.10
2020,02,03,05,24,-0.10
2020,02,03,05,25,-0.10
2020,02,03,05,26,-0.10
2020,02,03,05,27,-0.10
2020,02,03,05,28,-0.10
2020,02,03,05,29,-0.10
2020,02,03,05,30,-0.20
2020,02,03,05,31,-0.20
2020,02,03,05,32,-0.20
2020,02,03,05,33,-0.20
2020,02,03,05,34,-0.30
2020,02,03,05,35,-0.30
2020,02,03,05,36,-0.30
2020,02,03,05,37,-0.30
2020,02,03,05,38,-0.30
2020,02,03,05,39,-0.30
2020,02,03,05,40,-0.30
2020,02,03,05,41,-0.30
2020,02,03,05,42,-0.30
2020,02,03,05,43,-0.30
2020,02,03,05,44,-0.30
2020,02,03,05,45,-0.30
2020,02,03,05,46,-0.30
2020,02,03,05,47,-0.30
2020,02,03,05,48,-0.40
2020,02,03,05,49,-0.40
2020,02,03,05,50,-0.40
2020,02,03,05,51,-0.30
2020,02,03,05,52,-0.30
2020,02,03,05,53,-0.30
2020,02,03,05,54,-0.20
2020,02,03,05,55,-0.20
2020,02,03,05,56,-0.20
2020,02,03,05,57,-0.10
2020,02,03,05,58,0.00
2020,02,03,05,59,0.10
2020,02,03,06,00,0.20
2020,02,03,06,01,0.30
2020,02,03,06,02,0.40
2020,02,03,06,03,0.50
2020,02,03,06,04,0.60
2020,02,03,06,05,0.70
2020,02,03,06,06,0.70
2020,02,03,06,07,0.80
2020,02,03,06,08,0.90
2020,02,03,06,09,0.90
2020,02,03,06,10,1.00
2020,02,03,06,11,1.00
2020,02,03,06,12,1.10
2020,02,03,06,13,1.10
2020,02,03,06,14,1.10
2020,02,03,06,15,1.20
2020,02,03,06,16,1.20
2020,02,03,06,17,1.20
2020,02,03,06,18,1.20
2020,02,03,06,19,1.30
2020,02,03,06,20,1.30
2020,02,03,06,21,1.30
2020,02,03,06,22,1.30
2020,02,03,06,23,1.30
2020,02,03,06,24,1.30
2020,02,03,06,25,1.30
2020,02,03,06,26,1.30
2020,02,03,06,27,1.30
2020,02,03,06,28,1.30
2020,02,03,06,29,1.40
2020,02,03,06,30,1.40
2020,02,03,06,31,1.40
2020,02,03,06,32,1.40
2020,02,03,06,33,1.40
2020,02,03,06,34,1.40
2020,02,03,06,35,1.40
2020,02,03,06,36,1.50
2020,02,03,06,37,1.50
2020,02,03,06,38,1.50
2020,02,03,06,39,1.50
2020,02,03,06,40,1.50
2020,02,03,06,41,1.50
2020,02,03,06,42,1.50
2020,02,03,06,43,1.50
2020,02,03,06,44,1.60
2020,02,03,06,45,1.60
2020,02,03,06,46,1.50
2020,02,03,06,47,1.50
2020,02,03,06,48,1.50
2020,02,03,06,49,1.60
2020,02,03,06,50,1.60
2020,02,03,06,51,1.60
2020,02,03,06,52,1.60
2020,02,03,06,53,1.60
2020,02,03,06,54,1.60
2020,02,03,06,55,1.70
2020,02,03,06,56,1.70
2020,02,03,06,57,1.70
2020,02,03,06,58,1.70
2020,02,03,06,59,1.70
2020,02,03,07,00,1.70
2020,02,03,07,01,1.70
2020,02,03,07,02,1.70
2020,02,03,07,03,1.70
2020,02,03,07,04,1.70
2020,02,03,07,05,1.70
2020,02,03,07,06,1.70
2020,02,03,07,07,1.70
2020,02,03,07,08,1.70
2020,02,03,07,09,1.70
2020,02,03,07,10,1.70
2020,02,03,07,11,1.70
2020,02,03,07,12,1.70
2020,02,03,07,13,1.70
2020,02,03,07,14,1.70
2020,02,03,07,15,1.70
2020,02,03,07,16,1.70
2020,02,03,07,17,1.80
2020,02,03,07,18,1.80
2020,02,03,07,19,1.80
2020,02,03,07,20,1.80
2020,02,03,07,21,1.80
2020,02,03,07,22,1.80
2020,02,03,07,23,1.80
2020,02,03,07,24,1.80
2020,02,03,07,25,1.80
2020,02,03,07,26,1.80
2020,02,03,07,27,1.80
2020,02,03,07,28,1.80
2020,02,03,07,29,1.80
2020,02,03,07,30,1.80
2020,02,03,07,31,1.80
2020,02,03,07,32,1.80
2020,02,03,07,33,1.80
2020,02,03,07,34,1.80
2020,02,03,07,35,1.80
2020,02,03,07,36,1.80
2020,02,03,07,37,1.80
2020,02,03,07,38,1.80
2020,02,03,07,39,1.80
2020,02,03,07,40,1.80
2020,02,03,07,41,1.80
2020,02,03,07,42,1.80
2020,02,03,07,43,1.80
2020,02,03,07,44,1.80
2020,02,03,07,45,1.80
2020,02,03,07,46,1.80
2020,02,03,07,47,1.80
2020,02,03,07,48,1.80
2020,02,03,07,49,1.80
2020,02,03,07,50,1.70
2020,02,03,07,51,1.70
2020,02,03,07,52,1.70
2020,02,03,07,53,1.70
2020,02,03,07,54,1.70
2020,02,03,07,55,1.70
2020,02,03,07,56,1.70
2020,02,03,07,57,1.80
2020,02,03,07,58,1.80
2020,02,03,07,59,1.80
2020,02,03,08,00,1.80
2020,02,03,08,01,1.80
2020,02,03,08,02,1.80
2020,02,03,08,03,1.80
2020,02,03,08,04,1.80
2020,02,03,08,05,1.80
2020,02,03,08,06,1.80
2020,02,03,08,07,1.80
2020,02,03,08,08,1.80
2020,02,03,08,09,1.80
2020,02,03,08,10,1.80
2020,02,03,08,11,1.80
2020,02,03,08,12,1.80
2020,02,03,08,13,1.80
2020,02,03,08,14,1.70
2020,02,03,08,15,1.70
2020,02,03,08,16,1.70
2020,02,03,08,17,1.70
2020,02,03,08,18,1.70
2020,02,03,08,19,1.70
2020,02,03,08,20,1.60
2020,02,03,08,21,1.60
2020,02,03,08,22,1.60
2020,02,03,08,23,1.60
2020,02,03,08,24,1.60
2020,02,03,08,25,1.60
2020,02,03,08,26,1.50
2020,02,03,08,27,1.50
2020,02,03,08,28,1.50
2020,02,03,08,29,1.50
2020,02,03,08,30,1.50
2020,02,03,08,31,1.50
2020,02,03,08,32,1.50
2020,02,03,08,33,1.50
2020,02,03,08,34,1.50
2020,02,03,08,35,1.40
2020,02,03,08,36,1.40
2020,02,03,08,37,1.40
2020,02,03,08,38,1.40
2020,02,03,08,39,1.40
2020,02,03,08,40,1.40
2020,02,03,08,41,1.40
2020,02,03,08,42,1.40
2020,02,03,08,43,1.40
2020,02,03,08,44,1.40
2020,02,03,08,45,1.50
2020,02,03,08,46,1.50
2020,02,03,08,47,1.50
2020,02,03,08,48,1.50
2020,02,03,08,49,1.50
2020,02,03,08,50,1.50
2020,02,03,08,51,1.50
2020,02,03,08,52,1.50
2020,02,03,08,53,1.50
2020,02,03,08,54,1.50
2020,02,03,08,55,1.50
2020,02,03,08,56,1.50
2020,02,03,08,57,1.50
2020,02,03,08,58,1.50
2020,02,03,08,59,1.50
2020,02,03,09,00,1.50
2020,02,03,09,01,1.50
2020,02,03,09,02,1.50
2020,02,03,18,48,1.80
2020,02,03,18,49,1.80
2020,02,03,18,50,1.80
2020,02,03,18,51,1.80
2020,02,03,18,52,1.80
2020,02,03,18,53,1.80
2020,02,03,18,54,1.80
2020,02,03,18,55,1.80
2020,02,03,18,56,1.80
2020,02,03,18,57,1.80
2020,02,03,18,58,1.80
2020,02,03,18,59,1.80
2020,02,03,19,00,1.80
2020,02,03,19,01,1.80
2020,02,03,19,02,1.80
2020,02,03,19,03,1.80
2020,02,03,19,04,1.80
2020,02,03,19,05,1.80
2020,02,03,19,06,1.70
2020,02,03,19,07,1.70
2020,02,03,19,08,1.70
2020,02,03,19,09,1.70
2020,02,03,19,10,1.70
2020,02,03,19,11,1.70
2020,02,03,19,12,1.70
2020,02,03,19,13,1.70
2020,02,03,19,14,1.70
2020,02,03,19,15,1.70
2020,02,03,19,16,1.70
2020,02,03,19,17,1.70
2020,02,03,19,18,1.70
2020,02,03,19,19,1.70
2020,02,03,19,20,1.70
2020,02,03,19,21,1.70
2020,02,03,19,22,1.60
2020,02,03,19,23,1.60
2020,02,03,19,24,1.60
2020,02,03,19,25,1.60
2020,02,03,19,26,1.60
2020,02,03,19,27,1.50
2020,02,03,19,28,1.50
2020,02,03,19,29,1.50
2020,02,03,19,30,1.50
2020,02,03,19,31,1.40
2020,02,03,19,32,1.30
2020,02,03,19,33,1.30
2020,02,03,19,34,1.30
2020,02,03,19,35,1.30
2020,02,03,19,36,1.20
2020,02,03,19,37,1.20
2020,02,03,19,38,1.20
2020,02,03,19,39,1.20
2020,02,03,19,40,1.20
2020,02,03,19,41,1.20
2020,02,03,19,42,1.20
2020,02,03,19,43,1.20
2020,02,03,19,44,1.20
2020,02,03,19,45,1.20
2020,02,03,19,46,1.20
2020,02,03,19,47,1.20
2020,02,03,19,48,1.20
2020,02,03,19,49,1.20
2020,02,03,19,50,1.20
2020,02,03,19,51,1.20
2020,02,03,19,52,1.20
2020,02,03,19,53,1.20
2020,02,03,19,54,1.20
2020,02,03,19,55,1.20
2020,02,03,19,56,1.10
2020,02,03,19,57,1.10
2020,02,03,19,58,1.10
2020,02,03,19,59,1.10
2020,02,03,20,00,1.10
2020,02,03,20,01,1.10
2020,02,03,20,02,1.00
2020,02,03,20,03,1.00
2020,02,03,20,04,1.00
2020,02,03,20,05,1.00
2020,02,03,20,06,1.00
2020,02,03,20,07,1.00
2020,02,03,20,08,1.00
2020,02,03,20,09,1.00
2020,02,03,20,10,0.90
2020,02,03,20,11,0.90
2020,02,03,20,12,0.90
2020,02,03,20,13,0.90
2020,02,03,20,14,0.90
2020,02,03,20,15,0.90
2020,02,03,20,16,0.90
2020,02,03,20,17,0.90
2020,02,03,20,18,0.90
2020,02,03,20,19,0.90
2020,02,03,20,20,0.90
2020,02,03,20,21,0.90
2020,02,03,20,22,0.80
2020,02,03,20,23,0.80
2020,02,03,20,24,0.80
2020,02,03,20,25,0.80
2020,02,03,20,26,0.80
2020,02,03,20,27,0.80
2020,02,03,20,28,0.80
2020,02,03,20,29,0.80
2020,02,03,20,30,0.80
2020,02,03,20,31,0.70
2020,02,03,20,32,0.70
2020,02,03,20,33,0.60
2020,02,03,20,34,0.60
2020,02,03,20,35,0.60
2020,02,03,20,36,0.60
2020,02,03,20,37,0.50
2020,02,03,20,38,0.50
2020,02,03,20,39,0.60
2020,02,03,20,40,0.60
2020,02,03,20,41,0.60
2020,02,03,20,42,0.60
2020,02,03,20,43,0.60
2020,02,03,20,44,0.60
2020,02,03,20,45,0.60
2020,02,03,20,46,0.60
2020,02,03,20,47,0.60
2020,02,03,20,48,0.60
2020,02,03,20,49,0.60
2020,02,03,20,50,0.50
2020,02,03,20,51,0.50
2020,02,03,20,52,0.50
2020,02,03,20,53,0.40
2020,02,03,20,54,0.40
2020,02,03,20,55,0.40
2020,02,03,20,56,0.40
2020,02,03,20,57,0.40
2020,02,03,20,58,0.40
2020,02,03,20,59,0.40
2020,02,03,21,00,0.40
2020,02,03,21,01,0.40
2020,02,03,21,02,0.40
2020,02,03,21,03,0.40
2020,02,03,21,04,0.40
2020,02,03,21,05,0.40
2020,02,03,21,06,0.40
2020,02,03,21,07,0.40
2020,02,03,21,08,0.40
2020,02,03,21,09,0.40
2020,02,03,21,10,0.40
2020,02,03,21,11,0.40
2020,02,03,21,12,0.40
2020,02,03,21,13,0.40
2020,02,03,21,14,0.40
2020,02,03,21,15,0.40
2020,02,03,21,16,0.40
2020,02,03,21,17,0.40
2020,02,03,21,18,0.40
2020,02,03,21,19,0.40
2020,02,03,21,20,0.40
2020,02,03,21,21,0.40
2020,02,03,21,22,0.40
2020,02,03,21,23,0.40
2020,02,03,21,24,0.40
2020,02,03,21,25,0.40
2020,02,03,21,26,0.40
2020,02,03,21,27,0.30
2020,02,03,21,28,0.30
2020,02,03,21,29,0.30
2020,02,03,21,30,0.30
2020,02,03,21,31,0.30
2020,02,03,21,32,0.30
2020,02,03,21,33,0.30
2020,02,03,21,34,0.30
2020,02,03,21,35,0.30
2020,02,03,21,36,0.30
2020,02,03,21,37,0.30
2020,02,03,21,38,0.30
2020,02,03,21,39,0.30
2020,02,03,21,40,0.30
2020,02,03,21,41,0.30
2020,02,03,21,42,0.30
2020,02,03,21,43,0.30
2020,02,03,21,44,0.30
2020,02,03,21,45,0.20
2020,02,03,21,46,0.20
2020,02,03,21,47,0.30
2020,02,03,21,48,0.30
2020,02,03,21,49,0.30
2020,02,03,21,50,0.30
2020,02,03,21,51,0.30
2020,02,03,21,52,0.30
2020,02,03,21,53,0.30
2020,02,03,21,54,0.30
2020,02,03,21,55,0.30
2020,02,03,21,56,0.30
2020,02,03,21,57,0.30
2020,02,03,21,58,0.30
2020,02,03,21,59,0.30
2020,02,03,22,00,0.30
2020,02,03,22,01,0.30
2020,02,03,22,02,0.30
2020,02,03,22,03,0.20
2020,02,03,22,04,0.20
2020,02,03,22,05,0.20
2020,02,03,22,06,0.20
2020,02,03,22,07,0.20
2020,02,03,22,08,0.20
2020,02,03,22,09,0.30
2020,02,03,22,10,0.30
2020,02,03,22,11,0.30
2020,02,03,22,12,0.30
2020,02,03,22,13,0.30
2020,02,03,22,14,0.30
2020,02,03,22,15,0.20
2020,02,03,22,16,0.20
2020,02,03,22,17,0.20
2020,02,03,22,18,0.20
2020,02,03,22,19,0.10
2020,02,03,22,20,0.10
2020,02,03,22,21,0.10
2020,02,03,22,22,0.10
2020,02,03,22,23,0.10
2020,02,03,22,24,0.10
2020,02,03,22,25,0.10
2020,02,03,22,26,0.10
2020,02,03,22,27,0.10
2020,02,03,22,28,0.10
2020,02,03,22,29,0.00
2020,02,03,22,30,-0.10
2020,02,03,22,31,-0.10
2020,02,03,22,32,-0.10
2020,02,03,22,33,-0.10
2020,02,03,22,34,-0.10
2020,02,03,22,35,-0.10
2020,02,03,22,36,-0.10
2020,02,03,22,37,-0.10
2020,02,03,22,38,-0.20
2020,02,03,22,39,-0.20
2020,02,03,22,40,-0.20
2020,02,03,22,41,-0.20
2020,02,03,22,42,-0.20
2020,02,03,22,43,-0.20
2020,02,03,22,44,-0.20
2020,02,03,22,45,-0.20
2020,02,03,22,46,-0.30
2020,02,03,22,47,-0.30
2020,02,03,22,48,-0.30
2020,02,03,22,49,-0.30
2020,02,03,22,50,-0.30
2020,02,03,22,51,-0.30
2020,02,03,22,52,-0.30
2020,02,03,22,53,-0.30
2020,02,03,22,54,-0.30
2020,02,03,22,55,-0.30
2020,02,03,22,56,-0.30
2020,02,03,22,57,-0.30
2020,02,03,22,58,-0.40
2020,02,03,22,59,-0.40
2020,02,03,23,00,-0.40
2020,02,03,23,01,-0.40
2020,02,03,23,02,-0.40
2020,02,03,23,03,-0.40
2020,02,03,23,04,-0.40
2020,02,03,23,05,-0.40
2020,02,03,23,06,-0.40
2020,02,03,23,07,-0.40
2020,02,03,23,08,-0.40
2020,02,03,23,09,-0.40
2020,02,03,23,10,-0.40
2020,02,03,23,11,-0.40
2020,02,03,23,12,-0.40
2020,02,03,23,13,-0.40
2020,02,03,23,14,-0.40
2020,02,03,23,15,-0.40
2020,02,03,23,16,-0.40
2020,02,03,23,17,-0.40
2020,02,03,23,18,-0.40
2020,02,03,23,19,-0.40
2020,02,03,23,20,-0.40
2020,02,03,23,21,-0.40
2020,02,03,23,22,-0.40
2020,02,03,23,23,-0.40
2020,02,03,23,24,-0.40
2020,02,03,23,25,-0.40
2020,02,03,23,26,-0.40
2020,02,03,23,27,-0.40
2020,02,03,23,28,-0.40
2020,02,03,23,29,-0.40
2020,02,03,23,30,-0.40
2020,02,03,23,31,-0.40
2020,02,03,23,32,-0.40
2020,02,03,23,33,-0.40
2020,02,03,23,34,-0.40
2020,02,03,23,35,-0.40
2020,02,03,23,36,-0.40
2020,02,03,23,37,-0.40
2020,02,03,23,38,-0.40
2020,02,03,23,39,-0.40
2020,02,03,23,40,-0.40
2020,02,03,23,41,-0.40
2020,02,03,23,42,-0.40
2020,02,03,23,43,-0.40
2020,02,03,23,44,-0.40
2020,02,03,23,45,-0.40
2020,02,03,23,46,-0.40
2020,02,03,23,47,-0.50
2020,02,03,23,48,-0.60
2020,02,03,23,49,-0.60
2020,02,03,23,50,-0.60
2020,02,03,23,51,-0.60
2020,02,03,23,52,-0.60
2020,02,03,23,53,-0.60
2020,02,03,23,54,-0.60
2020,02,03,23,55,-0.60
2020,02,03,23,56,-0.60
2020,02,03,23,57,-0.60
2020,02,03,23,58,-0.60
2020,02,03,23,59,-0.60
